Location: Unspecified
(0.0000°N, 0.0000°E)
Time: 05:14:29
(UTC+00:00)

Vanguard 1 - Pass Details

Date: 10 December 2017
Orbit: 650 x 3833 km, 34.2° (Epoch: 21 July)

Event Time Altitude Azimuth Distance (km) Brightness Sun altitude
Rises 19:45:57 0° 284° (WNW) 2,957 13.3 -25.8°
Reaches altitude 10° 19:48:24 10° 272° (W) 2,049 12.5 -26.4°
Maximum altitude 19:52:16 28° 211° (SSW) 1,315 11.2 -27.2°
Drops below altitude 10° 19:57:04 10° 151° (SSE) 2,569 12.2 -28.3°
Sets 20:00:33 0° 141° (SE) 3,888 13.0 -29.1°
